Regional Weather Roundup
Issued by NWS

Home | Current Version | Previous Version | Graphics & Text | Print | Product List | Glossary On
Versions: 1 2 3 4 5 6 7 8 9 10 11 12 13 14 15 16 17 18 19 20 21 22 23 24 25 26 27 28 29 30 31 32 33 34 35 36 37 38 39 40 41 42 43 44 45 46 47 48 49 50
000
ASUS45 KPSR 230500
RWRAZ

PRELIMINARY ARIZONA REGIONAL HOURLY WEATHER ROUNDUP
NATIONAL WEATHER SERVICE PHOENIX AZ
1000 PM MST WED OCT 22 2014

NOTE: FAIR INDICATES FEW OR NO CLOUDS BELOW 12,000 FEET WITH NO
SIGNIFICANT WEATHER AND/OR OBSTRUCTIONS TO VISIBILITY.

AZZ001>003-036-230600-
NORTHWEST ARIZONA

CITY           SKY/WX    TMP DP  RH WIND       PRES   REMARKS
KINGMAN        MOCLDY    58  39  49 CALM      30.11R
$$

AZZ004>008-015-016-018-230600-
NORTH CENTRAL ARIZONA

CITY           SKY/WX    TMP DP  RH WIND       PRES   REMARKS
GRAND CANYON   CLEAR     38  27  64 CALM      30.28R
PRESCOTT       CLEAR     56  37  49 S9        30.20R
FLAGSTAFF      CLEAR     40  31  70 CALM      30.30S
PAYSON         CLEAR     55  43  62 CALM      30.22R
PAGE           CLEAR     63  32  31 CALM      30.13S
$$

AZZ009>014-017-230600-
NORTHEAST ARIZONA

CITY           SKY/WX    TMP DP  RH WIND       PRES   REMARKS
WINSLOW        NOT AVBL
SAINT JOHNS    CLEAR     54  42  64 S3        30.22R
WINDOW ROCK    CLEAR     47  32  56 CALM      30.27S
$$

AZZ023-230600-
GREATER PHOENIX AREA

CITY           SKY/WX    TMP DP  RH WIND       PRES   REMARKS
PHOENIX        CLEAR     78  54  43 CALM      29.94R
LUKE AFB       CLEAR     71  50  46 N5        29.94R
DEER VALLEY    CLEAR     75  47  36 NE10      29.96R
SCOTTSDALE     CLEAR     77  49  37 N5        29.98R
MESA-GATEWAY   CLEAR     70  52  52 SE3       29.98R
$$

AZZ027-028-230600-
SOUTHWEST MARICOPA COUNTY AND PINAL COUNTY

CITY           SKY/WX    TMP DP  RH WIND       PRES   REMARKS
CASA GRANDE    CLEAR     72  45  37 CALM      29.97R
GILA BEND      CLEAR     73  45  35 S5        29.95R
$$

AZZ503-504-507>509-230600-
SOUTHEAST ARIZONA

CITY           SKY/WX    TMP DP  RH WIND       PRES   REMARKS
TUCSON         CLEAR     72  48  42 SE7       30.05R
DAVIS-MONTHAN  CLEAR     68  49  50 S8        30.03R
NOGALES        CLEAR     60  45  57 CALM      30.10R
SIERRA VISTA   CLEAR     63  43  48 SW8       30.15S
SAFFORD        CLEAR     63  53  70 E5        30.07R
$$

AZZ020-021-025-026-031-230600-
SOUTHWEST ARIZONA

CITY           SKY/WX    TMP DP  RH WIND       PRES   REMARKS
YUMA           PTCLDY    82  49  31 CALM      29.90R
$$

CAZ031-033-041-043-047-048-061-230600-
SOUTHERN CALIFORNIA

CITY           SKY/WX    TMP DP  RH WIND       PRES   REMARKS
DOWNTOWN L.A.  CLEAR     68  60  75 CALM      29.95R
L.A. AIRPORT   PTCLDY    68  66  93 SW5       29.95R
SAN DIEGO      CLEAR     68  61  78 N3        29.97R
BURBANK        CLEAR     68  55  63 CALM      29.96R
ONTARIO        MOCLDY    70  57  63 CALM      29.98R
RIVERSIDE      PTCLDY    70  51  51 CALM      29.98R
PALM SPRINGS   PTCLDY    78  30  17 NW8       29.95R
EL CENTRO NAS  PTCLDY    73  48  41 CALM      29.89R
IMPERIAL       CLEAR     77  52  41 N3        29.89R
BLYTHE         PTCLDY    78  42  27 NW7       29.91R
$$

NVZ020-UTZ003-230600-
SOUTHERN NEVADA-UTAH

CITY           SKY/WX    TMP DP  RH WIND       PRES   REMARKS
LAS VEGAS      NOT AVBL
SALT LAKE CITY PTCLDY    48  32  53 SE7       30.17S
$$

NMZ009-TXZ055-230600-
NEW MEXICO-WEST TEXAS

CITY           SKY/WX    TMP DP  RH WIND       PRES   REMARKS
ALBUQUERQUE    CLEAR     59  41  51 E5        30.20R
EL PASO        CLEAR     63  55  75 CALM      30.13R
$$


........................KEY........................
SKY/WX - SKY CONDITION/WEATHER
TMP    - TEMPERATURE IN FAHRENHEIT
DP     - DEW POINT IN FAHRENHEIT
RH     - RELATIVE HUMIDITY IN PERCENT
WIND   - DIRECTION AND SPEED IN MILES PER HOUR (MPH)
VRB    - VARIABLE WIND DIRECTION
PRES   - MEAN SEA LEVEL PRESSURE IN INCHES OF MERCURY
         F - FALLING PRESSURE   R - RISING PRESSURE
         S - STEADY PRESSURE
VSB    - VISIBILITY IN MILES
HX     - HEAT INDEX IN FAHRENHEIT
WCI    - WIND CHILL INDEX IN FAHRENHEIT
TC     - TEMPERATURE IN CELSIUS WHICH IS ALSO KNOWN AS
         TEMPERATURE IN CENTIGRADE
AFB    - AIR FORCE BASE
         LUKE AFB IS LUKE AIR FORCE BASE
         DAVIS-MONTHAN IS DAVIS-MONTHAN AIR FORCE BASE
NAS    - NAVAL AIR STATION
         EL CENTRO NAS IS EL CENTRO NAVAL AIR STATION
N/A    - NOT AVAILABLE



USA.gov is the U.S. government's official web portal to all federal, state and local government web resources and services.